This demonstration page uses our WeatherBlox Daily Observations layout. Learn more.

Left ArrowRight Arrow

36.17497, -115.13722

Hourly Observations for April 11, 2016

Temp ( °F °C ) Dew Point ( °F °C ) Humidity (%) Winds ( mph kmh ) Pressure ( in mb ) Visibility ( mi km ) Precip ( " mm )
12:53 am 00:53 Cloudy 54 12.2 49 9.4 83 83 Calm 30.02 1017 10 16.0934 0 0
1:53 am 01:53 Cloudy 56 13.3 50 10 81 81 Calm 30.02 1017 10 16.0934 0 0
2:53 am 02:53 Mostly Cloudy 56 13.3 50 10 81 81 Calm 30.03 1017 10 16.0934 0 0
3:53 am 03:53 Cloudy 56 13.3 51 10.6 84 84 Calm 30.04 1017 10 16.0934 0 0
4:53 am 04:53 Cloudy 56 13.3 50 10 81 81 NNE 3 6 30.04 1017 10 16.0934 0 0
5:18 am 05:18 Cloudy 55 13 50 10 82 82 Calm 30.03 1017 10 16.0934 0 0
5:27 am 05:27 Cloudy 56 13.3 50 10 81 81 Calm 30.03 1017 10 16.0934 0 0
5:53 am 05:53 Partly Cloudy 56 13.3 50 10 81 81 Calm 30.06 1018 10 16.0934 0 0
6:11 am 06:11 Mostly Cloudy 55 12.8 50 10 83 83 SE 3 6 30.03 1017 10 16.0934 0 0
6:53 am 06:53 Mostly Cloudy 55 12.8 50 10 83 83 E 3 6 30.08 1019 10 16.0934 0 0
7:03 am 07:03 Cloudy 55 13 50 10 82 82 E 3 6 30.06 1018 10 16.0934 0 0
7:53 am 07:53 Cloudy 57 13.9 50 10 78 78 SE 3 6 30.1 1019 10 16.0934 0 0
8:53 am 08:53 Cloudy 58 14.4 50 10 75 75 ENE 6 9 30.12 1020 10 16.0934 0 0
9:20 am 09:20 Cloudy 59 15 52 11 77 77 ENE 6 9 30.03 1017 10 16.0934 0 0
9:53 am 09:53 Partly Cloudy 61 16.1 51 10.6 70 70 NE 6 9 30.12 1020 10 16.0934 0 0
10:01 am 10:01 Mostly Cloudy 60 15.6 50 10 70 70 ENE 5 7 30.03 1017 10 16.0934 0 0
10:33 am 10:33 Mostly Cloudy 60 15.6 51 10.6 72 72 Calm 30.03 1017 10 16.0934 0 0
10:42 am 10:42 Mostly Cloudy 63 17 52 11 68 68 ENE 5 7 30.03 1017 10 16.0934 0 0
10:53 am 10:53 Partly Cloudy 62 16.7 52 11.1 70 70 SSE 5 7 30.13 1020 10 16.0934 0 0
11:53 am 11:53 Sunny 64 17.8 50 10 60 60 E 3 6 30.11 1020 10 16.0934 0 0
12:53 pm 12:53 Partly Cloudy 67 19.4 49 9.4 53 53 ESE 7 11 30.09 1019 10 16.0934 0 0
1:53 pm 13:53 Mostly Cloudy 65 18.3 48 8.9 54 54 ESE 6 9 30.08 1019 10 16.0934 0 0
2:53 pm 14:53 Cloudy 66 18.9 47 8.3 50 50 ESE 8 13 30.06 1018 10 16.0934 0 0
3:53 pm 15:53 Mostly Cloudy 65 18.3 48 8.9 54 54 WSW 10 17 30.06 1018 10 16.0934 0 0
4:53 pm 16:53 Cloudy 65 18.3 48 8.9 54 54 S 6 9 30.05 1018 10 16.0934 0.01 0.254
5:53 pm 17:53 Mostly Sunny 66 18.9 47 8.3 50 50 Calm 30.05 1018 10 16.0934 0 0
6:53 pm 18:53 Cloudy 66 18.9 49 9.4 54 54 E 6 9 30.06 1018 10 16.0934 0 0
7:53 pm 19:53 Mostly Clear 64 17.8 48 8.9 56 56 ESE 5 7 30.06 1018 10 16.0934 0 0
8:53 pm 20:53 Clear 63 17.2 48 8.9 58 58 E 3 6 30.09 1019 10 16.0934 0 0
9:53 pm 21:53 Clear 62 16.7 47 8.3 58 58 ENE 7 11 30.08 1019 10 16.0934 0 0
10:53 pm 22:53 Clear 60 15.6 49 9.4 67 67 E 6 9 30.09 1019 10 16.0934 0 0
11:53 pm 23:53 Partly Cloudy 59 15 50 10 72 72 N 3 6 30.09 1019 10 16.0934 0 0

Powered by AerisWeather